Mackinac Island, MI

6:07 AM EDT on March 25, 2017 (GMT -0400)
Mackinac Island

Weather History for KMCD - March, 2012

Change the Weather History Date:

Sunday, March 18, 2012

  Actual Average Record
Temperature  
Mean Temperature 54 °F -  
Max Temperature 66 °F 31 °F 66 °F (2012)
Min Temperature 42 °F 19 °F 2 °F (1985)
Degree Days  
Heating Degree Days 11    
Growing Degree Days 4 (Base 50)    
Moisture  
Dew Point 48 °F    
Average Humidity 72    
Maximum Humidity 93    
Minimum Humidity 55    
Precipitation  
Precipitation 0.00 in - - ()
Sea Level Pressure  
Sea Level Pressure 30.01 in    
Wind  
Wind Speed 1 mph (SE)    
Max Wind Speed 8 mph    
Max Gust Speed -    
Visibility 10 miles    
Events      
Averages and records for this station are not official NWS values.
T = Trace of Precipitation, MM = Missing Value Source: NWS Daily Summary

Daily Weather History Graph

Daily Weather History Graph

Search for Another Location

Airport or City:

Trip Planner

Search our weather history database for the weather conditions in past years. The results will help you decide how hot, cold, wet, or windy it might be!

Date:

Astronomy

Mar. 18, 2012 Rise Set
Actual Time 7:44 AM EDT 7:49 PM EDT
Civil Twilight 7:14 AM EDT 8:18 PM EDT
Nautical Twilight 6:40 AM EDT 8:53 PM EDT
Astronomical Twilight 6:04 AM EDT 9:29 PM EDT
Moon 5:34 AM EDT (3/18) 4:05 PM EDT (3/18)
Length of Visible Light 13h 04m
Length of Day
12h 04m
Waning Crescent, 15% of the Moon is Illuminated
Mar 18
Waning Crescent
Mar 22
New
Mar 30
First Quarter
Apr 6
Full
Apr 13
Last Quarter

Hourly Weather History & Observations

Time (EDT) Temp. Windchill Dew Point Humidity Pressure Visibility Wind Dir Wind Speed Gust Speed Precip Events Conditions
12:13 AM 45.3 °F - 41.0 °F 85% 29.99 in 10.0 mi Calm Calm - N/A   Clear
12:33 AM 43.3 °F 41.7 °F 40.5 °F 90% 30.00 in 10.0 mi SSE 3.5 mph - N/A   Clear
1:13 AM 44.6 °F - 40.3 °F 85% 30.00 in 10.0 mi Calm Calm - N/A   Clear
1:33 AM 45.0 °F - 40.8 °F 85% 30.00 in 10.0 mi Calm Calm - N/A   Clear
1:53 AM 44.8 °F - 41.0 °F 87% 30.00 in 10.0 mi Calm Calm - N/A   Clear
2:13 AM 44.2 °F - 40.6 °F 87% 30.00 in 10.0 mi Calm Calm - N/A   Clear
2:33 AM 42.8 °F - 40.3 °F 91% 30.00 in 10.0 mi Calm Calm - N/A   Clear
2:53 AM 43.3 °F - 40.6 °F 90% 30.00 in 10.0 mi Calm Calm - N/A   Clear
3:13 AM 44.2 °F - 42.3 °F 93% 30.00 in 10.0 mi Calm Calm - N/A   Clear
3:33 AM 48.2 °F - 43.7 °F 84% 30.00 in 10.0 mi Calm Calm - N/A   Clear
3:53 AM 55.2 °F - 46.8 °F 73% 30.00 in 10.0 mi South 3.5 mph - N/A   Clear
4:13 AM 57.2 °F - 47.5 °F 70% 30.00 in 10.0 mi Calm Calm - N/A   Clear
4:33 AM 56.7 °F - 47.5 °F 71% 30.00 in 10.0 mi Calm Calm - N/A   Clear
4:53 AM 49.5 °F - 45.3 °F 86% 30.00 in 10.0 mi South 3.5 mph - N/A   Clear
5:13 AM 57.7 °F - 48.6 °F 71% 30.00 in 10.0 mi SSW 4.6 mph - N/A   Clear
5:33 AM 58.5 °F - 49.1 °F 71% 30.00 in 10.0 mi South 3.5 mph - N/A   Clear
5:53 AM 55.0 °F - 47.1 °F 75% 30.00 in 10.0 mi Calm Calm - N/A   Clear
6:13 AM 55.0 °F - 49.1 °F 80% 30.00 in 10.0 mi South 3.5 mph - N/A   Clear
6:33 AM 57.6 °F - 49.3 °F 74% 30.00 in 10.0 mi Calm Calm - N/A   Mostly Cloudy
6:53 AM 59.4 °F - 50.0 °F 71% 30.00 in 10.0 mi SSW 3.5 mph - N/A   Overcast
7:13 AM 59.4 °F - 50.4 °F 72% 30.00 in 10.0 mi SSW 3.5 mph - N/A   Mostly Cloudy
7:33 AM 58.3 °F - 50.0 °F 74% 30.00 in 10.0 mi South 3.5 mph - N/A   Mostly Cloudy
7:53 AM 57.7 °F - 50.0 °F 75% 30.00 in 10.0 mi South 3.5 mph - N/A   Scattered Clouds
8:13 AM 57.9 °F - 50.2 °F 75% 30.01 in 10.0 mi SSW 3.5 mph - N/A   Scattered Clouds
8:33 AM 58.1 °F - 50.4 °F 75% 30.02 in 10.0 mi SSW 4.6 mph - N/A   Clear
8:53 AM 59.2 °F - 50.9 °F 74% 30.02 in 10.0 mi SSW 3.5 mph - N/A   Clear
9:13 AM 60.3 °F - 51.3 °F 72% 30.02 in 10.0 mi Calm Calm - N/A   Clear
9:33 AM 49.5 °F - 39.0 °F 67% 30.02 in 10.0 mi Calm Calm - N/A   Clear
9:53 AM 53.2 °F - 41.0 °F 63% 30.03 in 10.0 mi Calm Calm - N/A   Clear
10:13 AM 54.5 °F - 41.5 °F 62% 30.03 in 10.0 mi Calm Calm - N/A   Clear
10:33 AM 59.4 °F - 43.2 °F 55% 30.03 in 10.0 mi Calm Calm - N/A   Clear
10:53 AM 59.5 °F - 43.7 °F 56% 30.03 in 10.0 mi Calm Calm - N/A   Clear
11:13 AM 60.8 °F - 46.4 °F 59% 30.03 in 10.0 mi Calm Calm - N/A   Clear
11:33 AM 61.2 °F - 47.5 °F 61% 30.03 in 10.0 mi Calm Calm - N/A   Clear
11:53 AM 61.9 °F - 49.1 °F 63% 30.02 in 10.0 mi Calm Calm - N/A   Clear
12:13 PM 62.1 °F - 50.7 °F 66% 30.03 in 10.0 mi NE 4.6 mph - N/A   Clear
12:33 PM 59.0 °F - 50.4 °F 73% 30.03 in 10.0 mi ENE 5.8 mph - N/A   Clear
12:53 PM 60.6 °F - 51.6 °F 72% 30.03 in 10.0 mi ENE 3.5 mph - N/A   Clear
1:13 PM 61.0 °F - 51.6 °F 71% 30.03 in 10.0 mi ENE 3.5 mph - N/A   Clear
1:33 PM 61.9 °F - 51.8 °F 69% 30.03 in 10.0 mi ENE 4.6 mph - N/A   Clear
1:53 PM 60.8 °F - 52.0 °F 73% 30.03 in 10.0 mi ENE 3.5 mph - N/A   Clear
2:13 PM 62.1 °F - 52.5 °F 71% 30.02 in 10.0 mi Calm Calm - N/A   Clear
2:33 PM 64.2 °F - 53.1 °F 67% 30.02 in 10.0 mi East 3.5 mph - N/A   Clear
2:53 PM 65.3 °F - 53.2 °F 65% 30.01 in 10.0 mi Calm Calm - N/A   Clear
3:13 PM 65.7 °F - 53.6 °F 65% 30.00 in 10.0 mi ESE 5.8 mph - N/A   Clear
3:33 PM 64.9 °F - 53.6 °F 67% 30.00 in 10.0 mi ESE 8.1 mph - N/A   Clear
3:53 PM 64.8 °F - 53.2 °F 66% 30.00 in 10.0 mi Calm Calm - N/A   Clear
4:13 PM 65.5 °F - 54.0 °F 66% 30.00 in 10.0 mi East 4.6 mph - N/A   Clear
4:53 PM 64.4 °F - 54.0 °F 69% 30.00 in 10.0 mi ESE 3.5 mph - N/A   Clear
5:13 PM 64.4 °F - 54.1 °F 69% 29.99 in 10.0 mi Calm Calm - N/A   Clear
5:33 PM 65.1 °F - 54.1 °F 68% 29.99 in 10.0 mi Calm Calm - N/A   Clear
5:53 PM 66.2 °F - 54.3 °F 65% 29.98 in 10.0 mi Calm Calm - N/A   Clear
6:13 PM 66.7 °F - 54.0 °F 63% 29.98 in 10.0 mi Calm Calm - N/A   Clear
6:33 PM 64.9 °F - 50.2 °F 59% 29.97 in 10.0 mi Calm Calm - N/A   Clear
6:53 PM 65.5 °F - 52.0 °F 62% 29.96 in 10.0 mi Calm Calm - N/A   Clear
7:13 PM 58.3 °F - 44.6 °F 60% 29.96 in 10.0 mi Calm Calm - N/A   Clear
7:33 PM 53.2 °F - 42.6 °F 67% 29.96 in 10.0 mi Calm Calm - N/A   Clear
7:53 PM 47.3 °F - 40.5 °F 77% 29.97 in 10.0 mi Calm Calm - N/A   Clear
8:13 PM 46.2 °F - 40.8 °F 81% 29.97 in 10.0 mi Calm Calm - N/A   Clear
8:53 PM 45.5 °F - 42.6 °F 90% 29.97 in 10.0 mi Calm Calm - N/A   Clear
9:13 PM 44.6 °F - 41.9 °F 90% 29.98 in 10.0 mi Calm Calm - N/A   Clear
9:53 PM 41.9 °F - 40.1 °F 93% 29.98 in 7.0 mi Calm Calm - N/A   Clear
10:13 PM 41.7 °F - 39.7 °F 93% 29.99 in 10.0 mi Calm Calm - N/A   Clear
10:33 PM 41.0 °F - 39.4 °F 94% 29.99 in 7.0 mi Calm Calm - N/A   Clear
10:53 PM 41.4 °F - 40.1 °F 95% 29.99 in 10.0 mi Calm Calm - N/A   Clear
11:13 PM 42.3 °F - 40.5 °F 93% 29.99 in 10.0 mi Calm Calm - N/A   Clear
11:33 PM 42.8 °F - 41.0 °F 93% 30.00 in 10.0 mi Calm Calm - N/A   Clear
11:53 PM 43.0 °F 41.3 °F 41.4 °F 94% 30.00 in 10.0 mi ESE 3.5 mph - N/A   Clear